Gastonia, NC

6:01 PM EST on January 21, 2020 (GMT -0500)
Gastonia Municipal

Weather History for KAKH - November, 2019

Change the Weather History Date:

Sunday, November 24, 2019

  Actual Average (KCLT) Record (KCLT)
Temperature  
Mean Temperature 48 °F -  
Max Temperature 59 °F 59 °F 75 °F (1958)
Min Temperature 37 °F 39 °F 16 °F (1970)
Degree Days  
Heating Degree Days 17    
Moisture  
Dew Point 38 °F    
Average Humidity 71    
Maximum Humidity 90    
Minimum Humidity 36    
Precipitation  
Precipitation 0.00 in - - ()
Sea Level Pressure  
Sea Level Pressure 29.75 in    
Wind  
Wind Speed 2 mph ()    
Max Wind Speed 8 mph    
Max Gust Speed -    
Visibility 9.0 miles    
Events      
Averages and records for this station are not official NWS values.
T = Trace of Precipitation, MM = Missing Value Source: Averaged Metar Reports

Daily Weather History Graph

Daily Weather History Graph

Search for Another Location

Airport or City:

Astronomy

Nov. 24, 2019 Rise Set
Actual Time 7:07 AM EST 5:14 PM EST
Civil Twilight 6:40 AM EST 5:41 PM EST
Nautical Twilight 6:09 AM EST 6:12 PM EST
Astronomical Twilight 5:39 AM EST 6:43 PM EST
Moon 4:41 AM EST (11/24) 4:12 PM EST (11/24)
Length of Visible Light 11h 01m
Length of Day
10h 06m
Waning Crescent, 5% of the Moon is Illuminated
Nov 24
Waning Crescent
Nov 26
New
Dec 4
First Quarter
Dec 12
Full
Dec 18
Last Quarter

Hourly Weather History & Observations

Time (EST) Temp. Windchill Dew Point Humidity Pressure Visibility Wind Dir Wind Speed Gust Speed Precip Events Conditions
12:24 AM 48.9 °F - 45.0 °F 86% 29.64 in 5.0 mi Calm Calm - N/A   Overcast
12:37 AM 48.9 °F - 46.0 °F 90% 29.63 in 4.0 mi Calm Calm - N/A   Overcast
12:54 AM 50.0 °F - 46.0 °F 86% 29.63 in 5.0 mi WSW 3.5 mph - N/A   Overcast
1:08 AM 50.0 °F - 46.0 °F 86% 29.63 in 9.0 mi WSW 8.1 mph - N/A   Overcast
1:31 AM 48.9 °F - 45.0 °F 86% 29.64 in 9.0 mi Variable 3.5 mph - N/A   Scattered Clouds
1:54 AM 48.0 °F - 44.1 °F 86% 29.65 in 10.0 mi Variable 4.6 mph - N/A   Clear
2:54 AM 46.0 °F 44.8 °F 42.1 °F 86% 29.67 in 8.0 mi WSW 3.5 mph - N/A   Clear
3:54 AM 45.0 °F - 39.9 °F 82% 29.68 in 10.0 mi Calm Calm - N/A   Clear
4:54 AM 43.0 °F - 39.0 °F 86% 29.70 in 10.0 mi Calm Calm - N/A   Clear
5:54 AM 42.1 °F - 37.0 °F 82% 29.71 in 10.0 mi Calm Calm - N/A   Clear
6:54 AM 41.0 °F 39.0 °F 36.0 °F 82% 29.74 in 10.0 mi WSW 3.5 mph - N/A   Clear
7:54 AM 45.0 °F 41.8 °F 36.0 °F 71% 29.76 in 10.0 mi Variable 5.8 mph - N/A   Clear
8:54 AM 48.9 °F - 33.1 °F 54% 29.80 in 10.0 mi Variable 5.8 mph - N/A   Clear
9:54 AM 52.0 °F - 34.0 °F 50% 29.81 in 10.0 mi WNW 8.1 mph - N/A   Clear
10:54 AM 53.1 °F - 34.0 °F 48% 29.81 in 10.0 mi Variable 4.6 mph - N/A   Clear
11:54 AM 55.0 °F - 34.0 °F 45% 29.81 in 10.0 mi Variable 6.9 mph - N/A   Clear
12:54 PM 57.0 °F - 33.1 °F 40% 29.79 in 10.0 mi Variable 5.8 mph - N/A   Clear
1:54 PM 57.9 °F - 33.1 °F 39% 29.78 in 10.0 mi Variable 4.6 mph - N/A   Clear
2:54 PM 59.0 °F - 32.0 °F 36% 29.78 in 10.0 mi Variable 5.8 mph - N/A   Clear
4:54 PM 55.0 °F - 35.1 °F 47% 29.80 in 10.0 mi Calm Calm - N/A   Clear
5:54 PM 48.9 °F - 39.0 °F 69% 29.81 in 10.0 mi Calm Calm - N/A   Clear
6:54 PM 45.0 °F - 37.9 °F 76% 29.84 in 10.0 mi Calm Calm - N/A   Clear
7:54 PM 43.0 °F - 37.0 °F 80% 29.84 in 10.0 mi Calm Calm - N/A   Clear
8:54 PM 42.1 °F - 36.0 °F 79% 29.85 in 10.0 mi Calm Calm - N/A   Clear
9:54 PM 39.9 °F - 35.1 °F 83% 29.86 in 7.0 mi Calm Calm - N/A   Clear
10:54 PM 37.9 °F - 34.0 °F 86% 29.86 in 7.0 mi Calm Calm - N/A   Clear
11:54 PM 37.0 °F - 33.1 °F 86% 29.85 in 9.0 mi Calm Calm - N/A   Clear